Location: Unspecified
(0.0000°N, 0.0000°E)
Time: 00:21:32
(UTC+00:00)

Vanguard 1 - Pass Details

Date: 11 December 2017
Orbit: 650 x 3833 km, 34.2° (Epoch: 20 July)

Event Time Altitude Azimuth Distance (km) Brightness Sun altitude
Rises 10:14:54 0° 273° (W) 7,944 14.4 56.8°
Reaches altitude 10° 10:23:12 10° 288° (WNW) 6,685 14.1 58.2°
Maximum altitude 10:36:49 20° 329° (NNW) 4,993 13.6 60.4°
Drops below altitude 10° 10:47:02 10° 12° (NNE) 4,867 13.5 61.9°
Sets 10:51:43 0° 29° (NNE) 5,335 13.7 62.5°
